TimeEST,TemperatureF,Dew PointF,Humidity,Sea Level PressureIn,VisibilityMPH,Wind Direction,Wind SpeedMPH,Gust SpeedMPH,PrecipitationIn,Events,Conditions,WindDirDegrees,DateUTC
12:51 AM,33.8,24.8,70,30.16,10.0,WNW,8.1,-,N/A,,Clear,300,2012-12-30 05:51:00
1:51 AM,33.1,23.0,66,30.19,10.0,WNW,8.1,-,N/A,,Clear,290,2012-12-30 06:51:00
2:51 AM,32.0,23.0,69,30.20,10.0,WNW,8.1,-,N/A,,Clear,300,2012-12-30 07:51:00
3:51 AM,30.2,24.8,80,30.21,10.0,West,5.8,-,N/A,,Clear,280,2012-12-30 08:51:00
4:51 AM,30.9,23.0,72,30.26,10.0,West,5.8,-,N/A,,Clear,280,2012-12-30 09:51:00
5:51 AM,28.0,23.0,81,30.27,10.0,West,5.8,-,N/A,,Clear,280,2012-12-30 10:51:00
6:51 AM,28.4,23.0,80,30.28,10.0,WNW,8.1,-,N/A,,Clear,290,2012-12-30 11:51:00
7:51 AM,28.9,21.9,75,30.33,8.0,West,8.1,-,N/A,,Clear,280,2012-12-30 12:51:00
8:51 AM,32.0,23.0,69,30.35,8.0,WNW,9.2,-,N/A,,Clear,290,2012-12-30 13:51:00
9:51 AM,36.0,23.0,59,30.40,9.0,NW,9.2,-,N/A,,Clear,320,2012-12-30 14:51:00
10:51 AM,39.9,23.0,51,30.42,10.0,NNW,5.8,-,N/A,,Clear,340,2012-12-30 15:51:00
11:51 AM,43.0,21.9,43,30.42,10.0,NW,4.6,-,N/A,,Clear,320,2012-12-30 16:51:00
12:51 PM,46.0,21.9,39,30.40,10.0,Calm,Calm,-,N/A,,Clear,0,2012-12-30 17:51:00
1:51 PM,48.9,21.9,35,30.38,10.0,West,6.9,-,N/A,,Clear,280,2012-12-30 18:51:00
2:51 PM,48.9,18.0,29,30.36,10.0,Variable,3.5,-,N/A,,Clear,0,2012-12-30 19:51:00
3:51 PM,51.1,19.0,28,30.38,10.0,Calm,Calm,-,N/A,,Clear,0,2012-12-30 20:51:00
4:51 PM,48.0,19.9,33,30.39,10.0,SW,4.6,-,N/A,,Clear,230,2012-12-30 21:51:00
5:51 PM,44.1,19.9,38,30.40,10.0,Calm,Calm,-,N/A,,Clear,0,2012-12-30 22:51:00
6:51 PM,41.0,21.9,47,30.42,10.0,Calm,Calm,-,N/A,,Clear,0,2012-12-30 23:51:00
7:51 PM,37.0,21.9,54,30.42,10.0,Calm,Calm,-,N/A,,Clear,0,2012-12-31 00:51:00
8:51 PM,35.1,23.0,61,30.41,10.0,Calm,Calm,-,N/A,,Clear,0,2012-12-31 01:51:00
10:51 PM,30.2,24.8,80,30.40,10.0,WNW,3.5,-,N/A,,Clear,290,2012-12-31 03:51:00
11:51 PM,30.9,26.1,82,30.40,10.0,Calm,Calm,-,N/A,,Clear,0,2012-12-31 04:51:00